,,,PA_Meas_PMT16A,,PR_Meas_QMR101_102,,RH_Meas_QMH101,,SR_Meas_QMS101,,TA_Meas_QMH101,,GenWind,,GenWind,
date,time,status,PA,status,PR,status,RH,status,SR,status,TA,status,DirAvg,status,SpdAvg,
2009-03-18, 00:00:05,VALID,1004.06,VALID,0.5,VALID,95.1627,VALID,0,VALID,23.1197,VALID,346,VALID,0.648438,
2009-03-18, 00:01:05,VALID,1004.05,VALID,0,VALID,95.155,VALID,0,VALID,23.1002,VALID,350,VALID,1.30117,
2009-03-18, 00:02:05,VALID,1004.05,VALID,0,VALID,95.1245,VALID,0,VALID,23.0401,VALID,349,VALID,1.74375,
2009-03-18, 00:03:05,VALID,1004.06,VALID,0,VALID,95.1398,VALID,0,VALID,23.0206,VALID,2,VALID,0.967969,
2009-03-18, 00:04:05,VALID,1004.06,VALID,0,VALID,95.1779,VALID,0,VALID,23.0418,VALID,332,VALID,1.10898,
2009-03-18, 00:05:05,VALID,1004.03,VALID,0,VALID,95.1703,VALID,0,VALID,23.0206,VALID,352,VALID,1.80313,
2009-03-18, 00:06:05,VALID,1004,VALID,0,VALID,95.1627,VALID,0,VALID,23.0224,VALID,360,VALID,1.27461,
2009-03-18, 00:07:05,VALID,1003.99,VALID,0.5,VALID,95.1703,VALID,0,VALID,23.0029,VALID,1,VALID,0.885938,
2009-03-18, 00:08:05,VALID,1004,VALID,0,VALID,95.1855,VALID,0,VALID,23.0224,VALID,324,VALID,1.21836,
2009-03-18, 00:09:05,VALID,1004,VALID,0,VALID,95.1855,VALID,0,VALID,23.0029,VALID,351,VALID,1.13242,
2009-03-18, 00:10:05,VALID,1003.99,VALID,0,VALID,95.1932,VALID,0,VALID,22.9834,VALID,355,VALID,1.16797,
2009-03-18, 00:11:05,VALID,1003.93,VALID,0,VALID,95.1779,VALID,0,VALID,22.964,VALID,2,VALID,0.679297,
2009-03-18, 00:12:05,VALID,1003.94,VALID,0,VALID,95.2008,VALID,0,VALID,22.9445,VALID,355,VALID,1.72461,
2009-03-18, 00:13:05,VALID,1003.87,VALID,0.5,VALID,95.1855,VALID,0,VALID,22.9445,VALID,360,VALID,0.998047,
2009-03-18, 00:14:05,VALID,1003.88,VALID,0,VALID,95.2008,VALID,0,VALID,22.9233,VALID,10,VALID,0.956641,
2009-03-18, 00:15:05,VALID,1003.87,VALID,0,VALID,95.2084,VALID,0,VALID,22.9251,VALID,343,VALID,0.986328,
2009-03-18, 00:16:05,VALID,1003.86,VALID,0,VALID,95.2008,VALID,0,VALID,22.9056,VALID,355,VALID,1.38594,
2009-03-18, 00:17:05,VALID,1003.84,VALID,0,VALID,95.2161,VALID,0,VALID,22.8844,VALID,343,VALID,1.09141,
2009-03-18, 00:18:05,VALID,1003.8,VALID,0,VALID,95.2389,VALID,0,VALID,22.9056,VALID,353,VALID,1.53828,
2009-03-18, 00:19:05,VALID,1003.81,VALID,0.5,VALID,95.2466,VALID,0,VALID,22.8861,VALID,355,VALID,1.06172,
2009-03-18, 00:20:05,VALID,1003.8,VALID,0,VALID,95.2618,VALID,0,VALID,22.8649,VALID,344,VALID,1.23828,
2009-03-18, 00:21:05,VALID,1003.78,VALID,0,VALID,95.2542,VALID,0,VALID,22.9056,VALID,349,VALID,1.76172,
2009-03-18, 00:22:05,VALID,1003.77,VALID,0,VALID,95.2618,VALID,0,VALID,22.8649,VALID,350,VALID,1.08828,
2009-03-18, 00:23:05,VALID,1003.78,VALID,0,VALID,95.2618,VALID,0,VALID,22.8667,VALID,351,VALID,1.36133,
2009-03-18, 00:24:05,VALID,1003.76,VALID,0,VALID,95.3076,VALID,0,VALID,22.8455,VALID,355,VALID,0.953125,
2009-03-18, 00:25:05,VALID,1003.76,VALID,0,VALID,95.2847,VALID,0,VALID,22.8667,VALID,350,VALID,0.677734,
2009-03-18, 00:26:05,VALID,1003.72,VALID,0.5,VALID,95.2923,VALID,0,VALID,22.8667,VALID,345,VALID,1.1125,
2009-03-18, 00:27:05,VALID,1003.73,VALID,0,VALID,95.3,VALID,0,VALID,22.8861,VALID,357,VALID,2.26719,
2009-03-18, 00:28:05,VALID,1003.73,VALID,0,VALID,95.2847,VALID,0,VALID,22.8861,VALID,318,VALID,0.832812,
2009-03-18, 00:29:05,VALID,1003.72,VALID,0,VALID,95.3152,VALID,0,VALID,22.8649,VALID,338,VALID,0.886719,
2009-03-18, 00:30:05,VALID,1003.71,VALID,0,VALID,95.3229,VALID,0,VALID,22.8861,VALID,350,VALID,0.380859,
2009-03-18, 00:31:05,VALID,1003.68,VALID,0,VALID,95.3,VALID,0,VALID,22.9073,VALID,350,VALID,1.5457,
2009-03-18, 00:32:05,VALID,1003.67,VALID,0,VALID,95.3,VALID,0,VALID,22.8861,VALID,5,VALID,1.08203,
2009-03-18, 00:33:05,VALID,1003.65,VALID,0,VALID,95.3076,VALID,0,VALID,22.8861,VALID,5,VALID,0.811719,
2009-03-18, 00:34:05,VALID,1003.59,VALID,0.5,VALID,95.3229,VALID,0,VALID,22.8861,VALID,23,VALID,0.522656,
2009-03-18, 00:35:05,VALID,1003.55,VALID,0,VALID,95.3076,VALID,0,VALID,22.8861,VALID,354,VALID,1.80117,
2009-03-18, 00:36:05,VALID,1003.5,VALID,0,VALID,95.3076,VALID,0,VALID,22.8649,VALID,344,VALID,1.03516,
2009-03-18, 00:37:05,VALID,1003.5,VALID,0,VALID,95.2847,VALID,0,VALID,22.8844,VALID,340,VALID,1.06406,
2009-03-18, 00:38:05,VALID,1003.49,VALID,0,VALID,95.3076,VALID,0,VALID,22.8649,VALID,353,VALID,0.751562,
2009-03-18, 00:39:05,VALID,1003.49,VALID,0,VALID,95.3534,VALID,0,VALID,22.9056,VALID,351,VALID,0.230078,
2009-03-18, 00:40:05,VALID,1003.46,VALID,0,VALID,95.3534,VALID,0,VALID,22.9039,VALID,304,VALID,1.13281,
2009-03-18, 00:41:05,VALID,1003.47,VALID,0,VALID,95.3686,VALID,0,VALID,22.9445,VALID,355,VALID,1.04336,
2009-03-18, 00:42:05,VALID,1003.45,VALID,0.5,VALID,95.3457,VALID,0,VALID,22.964,VALID,347,VALID,1.38867,
2009-03-18, 00:43:05,VALID,1003.41,VALID,0,VALID,95.3457,VALID,0,VALID,22.9428,VALID,355,VALID,1.11875,
2009-03-18, 00:44:05,VALID,1003.42,VALID,0,VALID,95.3534,VALID,0,VALID,22.964,VALID,333,VALID,0.808594,
2009-03-18, 00:45:05,VALID,1003.45,VALID,0,VALID,95.3381,VALID,0,VALID,22.9834,VALID,295,VALID,0.863281,
2009-03-18, 00:46:05,VALID,1003.44,VALID,0,VALID,95.3534,VALID,0,VALID,22.9834,VALID,355,VALID,1.38984,
2009-03-18, 00:47:05,VALID,1003.43,VALID,0,VALID,95.3381,VALID,0,VALID,22.964,VALID,338,VALID,0.93125,
2009-03-18, 00:48:05,VALID,1003.42,VALID,0,VALID,95.3076,VALID,0,VALID,22.9233,VALID,334,VALID,0.999609,
2009-03-18, 00:49:05,VALID,1003.44,VALID,0,VALID,95.3076,VALID,0,VALID,22.964,VALID,355,VALID,1.11016,
2009-03-18, 00:50:05,VALID,1003.41,VALID,0,VALID,95.3229,VALID,0,VALID,22.9445,VALID,6,VALID,0.945703,
2009-03-18, 00:51:05,VALID,1003.42,VALID,0,VALID,95.3457,VALID,0,VALID,22.9834,VALID,278,VALID,0.182812,
2009-03-18, 00:52:05,VALID,1003.35,VALID,0.5,VALID,95.3381,VALID,0,VALID,22.9834,VALID,1,VALID,0.937109,
2009-03-18, 00:53:05,VALID,1003.34,VALID,0,VALID,95.3305,VALID,0,VALID,22.9622,VALID,360,VALID,0.866797,
2009-03-18, 00:54:05,VALID,1003.31,VALID,0,VALID,95.3457,VALID,0,VALID,22.9834,VALID,307,VALID,0.461719,
2009-03-18, 00:55:05,VALID,1003.31,VALID,0,VALID,95.3381,VALID,0,VALID,23.0029,VALID,344,VALID,1.11016,
2009-03-18, 00:56:05,VALID,1003.29,VALID,0,VALID,95.3457,VALID,0,VALID,22.9817,VALID,348,VALID,0.533594,
2009-03-18, 00:57:05,VALID,1003.21,VALID,0,VALID,95.3305,VALID,0,VALID,23.0029,VALID,315,VALID,0.491016,
2009-03-18, 00:58:05,VALID,1003.2,VALID,0,VALID,95.3457,VALID,0,VALID,23.0029,VALID,344,VALID,0.284375,
2009-03-18, 00:59:05,VALID,1003.15,VALID,0,VALID,95.3534,VALID,0,VALID,23.0224,VALID,356,VALID,0.663281,
2009-03-18, 01:00:05,VALID,1003.11,VALID,0,VALID,95.3381,VALID,0,VALID,22.9817,VALID,330,VALID,1.24766,
2009-03-18, 01:01:05,VALID,1003.09,VALID,0,VALID,95.3534,VALID,0,VALID,23.0224,VALID,360,VALID,1.12578,
2009-03-18, 01:02:05,VALID,1003.07,VALID,0,VALID,95.361,VALID,0,VALID,23.0206,VALID,299,VALID,0.364844,
2009-03-18, 01:03:05,VALID,1003.07,VALID,0.5,VALID,95.361,VALID,0,VALID,23.0401,VALID,307,VALID,0.382031,
2009-03-18, 01:04:05,VALID,1003.02,VALID,0,VALID,95.361,VALID,0,VALID,23.0613,VALID,238,VALID,0.333203,
2009-03-18, 01:05:05,VALID,1003.03,VALID,0,VALID,95.3686,VALID,0,VALID,23.0613,VALID,332,VALID,0.697656,
2009-03-18, 01:06:05,VALID,1002.99,VALID,0,VALID,95.3534,VALID,0,VALID,23.0807,VALID,295,VALID,0.517969,
2009-03-18, 01:07:05,VALID,1002.93,VALID,0,VALID,95.3686,VALID,0,VALID,23.1002,VALID,301,VALID,0.282031,
2009-03-18, 01:08:05,VALID,1002.87,VALID,0,VALID,95.361,VALID,0,VALID,23.079,VALID,277,VALID,1.08984,
2009-03-18, 01:09:05,VALID,1002.87,VALID,0,VALID,95.361,VALID,0,VALID,23.1197,VALID,326,VALID,0.678516,
2009-03-18, 01:10:05,VALID,1002.83,VALID,0,VALID,95.3763,VALID,0,VALID,23.0984,VALID,321,VALID,0.860547,
2009-03-18, 01:11:05,VALID,1002.8,VALID,0,VALID,95.361,VALID,0,VALID,23.1197,VALID,294,VALID,0.503516,
2009-03-18, 01:12:05,VALID,1002.78,VALID,0,VALID,95.3763,VALID,0,VALID,23.1197,VALID,267,VALID,0.541797,
2009-03-18, 01:13:05,VALID,1002.71,VALID,0,VALID,95.3763,VALID,0,VALID,23.1197,VALID,234,VALID,0.372266,
2009-03-18, 01:14:05,VALID,1002.65,VALID,0,VALID,95.3839,VALID,0,VALID,23.1391,VALID,23,VALID,0.450391,
2009-03-18, 01:15:05,VALID,1002.59,VALID,0,VALID,95.3991,VALID,0,VALID,23.1798,VALID,346,VALID,0.995313,
2009-03-18, 01:16:05,VALID,1002.58,VALID,0,VALID,95.3839,VALID,0,VALID,23.1586,VALID,350,VALID,1.54531,
2009-03-18, 01:17:05,VALID,1002.59,VALID,0,VALID,95.3686,VALID,0,VALID,23.1586,VALID,337,VALID,0.933984,
2009-03-18, 01:18:05,VALID,1002.59,VALID,0,VALID,95.3763,VALID,0,VALID,23.178,VALID,354,VALID,0.753125,
2009-03-18, 01:19:05,VALID,1002.56,VALID,0,VALID,95.3686,VALID,0,VALID,23.1763,VALID,271,VALID,0.934766,
2009-03-18, 01:20:05,VALID,1002.62,VALID,0,VALID,95.3839,VALID,0,VALID,23.1975,VALID,316,VALID,1.15781,
2009-03-18, 01:21:05,VALID,1002.62,VALID,0,VALID,95.3763,VALID,0,VALID,23.217,VALID,357,VALID,1.31602,
2009-03-18, 01:22:05,VALID,1002.66,VALID,0,VALID,95.3763,VALID,0,VALID,23.217,VALID,8,VALID,0.655469,
2009-03-18, 01:23:05,VALID,1002.66,VALID,0.5,VALID,95.361,VALID,0,VALID,23.2364,VALID,308,VALID,0.9875,
2009-03-18, 01:24:05,VALID,1002.67,VALID,0,VALID,95.361,VALID,0,VALID,23.2364,VALID,268,VALID,1.04609,
2009-03-18, 01:25:05,VALID,1002.67,VALID,0,VALID,95.3763,VALID,0,VALID,23.2364,VALID,348,VALID,0.922266,
2009-03-18, 01:26:05,VALID,1002.67,VALID,0,VALID,95.3457,VALID,0,VALID,23.2347,VALID,353,VALID,1.37852,
2009-03-18, 01:27:05,VALID,1002.66,VALID,0,VALID,95.3534,VALID,0.100563,VALID,23.2329,VALID,345,VALID,1.65977,
2009-03-18, 01:28:05,VALID,1002.74,VALID,0,VALID,95.3305,VALID,0,VALID,23.2541,VALID,349,VALID,0.731641,
2009-03-18, 01:29:05,VALID,1002.71,VALID,0,VALID,95.3457,VALID,0,VALID,23.2736,VALID,336,VALID,1.02188,
2009-03-18, 01:30:05,VALID,1002.72,VALID,0,VALID,95.3305,VALID,0.100563,VALID,23.2736,VALID,337,VALID,1.26563,
2009-03-18, 01:31:05,VALID,1002.73,VALID,0,VALID,95.3457,VALID,0.100563,VALID,23.3125,VALID,305,VALID,0.746094,
2009-03-18, 01:32:05,VALID,1002.74,VALID,0,VALID,95.3305,VALID,0.100563,VALID,23.3125,VALID,351,VALID,0.886328,
2009-03-18, 01:33:05,VALID,1002.76,VALID,0,VALID,95.3,VALID,0,VALID,23.2718,VALID,348,VALID,1.20625,
2009-03-18, 01:34:05,VALID,1002.78,VALID,0,VALID,95.3076,VALID,0,VALID,23.2524,VALID,348,VALID,0.820703,
2009-03-18, 01:35:05,VALID,1002.8,VALID,0,VALID,95.2923,VALID,0.100563,VALID,23.2718,VALID,4,VALID,0.677734,
2009-03-18, 01:36:05,VALID,1002.8,VALID,0,VALID,95.2771,VALID,0.100563,VALID,23.2718,VALID,360,VALID,0.514063,
2009-03-18, 01:37:05,VALID,1002.83,VALID,0,VALID,95.2771,VALID,0,VALID,23.2931,VALID,359,VALID,0.513281,
2009-03-18, 01:38:05,VALID,1002.83,VALID,0,VALID,95.2618,VALID,0.100563,VALID,23.2736,VALID,346,VALID,0.314453,
2009-03-18, 01:39:05,VALID,1002.83,VALID,0,VALID,95.2542,VALID,0.100563,VALID,23.2736,VALID,353,VALID,0.494922,
2009-03-18, 01:40:05,VALID,1002.85,VALID,0,VALID,95.2695,VALID,0.100563,VALID,23.2524,VALID,331,VALID,0.514844,
2009-03-18, 01:41:05,VALID,1002.88,VALID,0,VALID,95.2923,VALID,0,VALID,23.2559,VALID,293,VALID,0.242969,
2009-03-18, 01:42:05,VALID,1002.9,VALID,0,VALID,95.2923,VALID,0,VALID,23.316,VALID,256,VALID,0.308594,
2009-03-18, 01:43:05,VALID,1002.9,VALID,0,VALID,95.2695,VALID,0,VALID,23.2559,VALID,287,VALID,1.16484,
2009-03-18, 01:44:05,VALID,1002.89,VALID,0,VALID,95.2618,VALID,0,VALID,23.2754,VALID,299,VALID,0.647266,
2009-03-18, 01:45:05,VALID,1002.88,VALID,0,VALID,95.2771,VALID,0,VALID,23.2559,VALID,287,VALID,0.537109,
2009-03-18, 01:46:05,VALID,1002.89,VALID,0,VALID,95.2771,VALID,0,VALID,23.2966,VALID,9,VALID,0.591016,
2009-03-18, 01:47:05,VALID,1002.91,VALID,0,VALID,95.2389,VALID,0,VALID,23.2559,VALID,1,VALID,0.513281,
2009-03-18, 01:48:05,VALID,1002.91,VALID,0,VALID,95.2618,VALID,0,VALID,23.2559,VALID,309,VALID,0.436719,
2009-03-18, 01:49:05,VALID,1002.92,VALID,0,VALID,95.2618,VALID,0,VALID,23.2559,VALID,339,VALID,0.733203,
2009-03-18, 01:50:05,VALID,1002.92,VALID,0,VALID,95.2237,VALID,0,VALID,23.2559,VALID,359,VALID,0.991797,
2009-03-18, 01:51:05,VALID,1002.93,VALID,0,VALID,95.2237,VALID,0,VALID,23.2364,VALID,351,VALID,0.749609,
2009-03-18, 01:52:05,VALID,1002.91,VALID,0,VALID,95.2618,VALID,0,VALID,23.2364,VALID,345,VALID,0.757031,
2009-03-18, 01:53:05,VALID,1002.92,VALID,0,VALID,95.2389,VALID,0,VALID,23.1957,VALID,352,VALID,0.489453,
2009-03-18, 01:54:05,VALID,1002.93,VALID,0,VALID,95.2618,VALID,0,VALID,23.1957,VALID,354,VALID,0.628516,
2009-03-18, 01:55:05,VALID,1002.94,VALID,0.5,VALID,95.2389,VALID,0,VALID,23.1957,VALID,294,VALID,0.620703,
2009-03-18, 01:56:05,VALID,1002.91,VALID,0,VALID,95.2542,VALID,0,VALID,23.217,VALID,290,VALID,0.0820313,
2009-03-18, 01:57:05,VALID,1002.87,VALID,0,VALID,95.2695,VALID,0,VALID,23.1975,VALID,346,VALID,0.234375,
2009-03-18, 01:58:05,VALID,1002.91,VALID,0,VALID,95.2695,VALID,0,VALID,23.1763,VALID,343,VALID,0.51875,
2009-03-18, 01:59:05,VALID,1002.9,VALID,0,VALID,95.2847,VALID,0,VALID,23.1763,VALID,341,VALID,0.292188,
2009-03-18, 02:00:05,VALID,1002.88,VALID,0,VALID,95.2771,VALID,0,VALID,23.1975,VALID,278,VALID,0.873828,
2009-03-18, 02:01:05,VALID,1002.86,VALID,0,VALID,95.2847,VALID,0,VALID,23.1975,VALID,318,VALID,0.262891,
2009-03-18, 02:02:05,VALID,1002.87,VALID,0,VALID,95.3076,VALID,0,VALID,23.1975,VALID,302,VALID,0.414844,
2009-03-18, 02:03:05,VALID,1002.83,VALID,0,VALID,95.3076,VALID,0,VALID,23.2364,VALID,296,VALID,1.08359,
2009-03-18, 02:04:05,VALID,1002.79,VALID,0,VALID,95.3076,VALID,0,VALID,23.2364,VALID,250,VALID,0.688281,
2009-03-18, 02:05:05,VALID,1002.8,VALID,0,VALID,95.3076,VALID,0,VALID,23.2152,VALID,253,VALID,0.350781,
2009-03-18, 02:06:05,VALID,1002.78,VALID,0,VALID,95.3076,VALID,0,VALID,23.2559,VALID,199,VALID,0.416406,
2009-03-18, 02:07:05,VALID,1002.78,VALID,0,VALID,95.2847,VALID,0,VALID,23.2559,VALID,344,VALID,0.460156,
2009-03-18, 02:08:05,VALID,1002.73,VALID,0,VALID,95.2847,VALID,0,VALID,23.2347,VALID,326,VALID,0.427734,
2009-03-18, 02:09:05,VALID,1002.74,VALID,0,VALID,95.2923,VALID,0,VALID,23.2559,VALID,302,VALID,0.830078,
2009-03-18, 02:10:05,VALID,1002.7,VALID,0,VALID,95.2695,VALID,0,VALID,23.2152,VALID,284,VALID,0.817187,
2009-03-18, 02:11:05,VALID,1002.68,VALID,0,VALID,95.2771,VALID,0,VALID,23.2559,VALID,299,VALID,1.34414,
2009-03-18, 02:12:05,VALID,1002.7,VALID,0,VALID,95.2389,VALID,0,VALID,23.2347,VALID,304,VALID,0.641016,
2009-03-18, 02:13:05,VALID,1002.7,VALID,0,VALID,95.2771,VALID,0,VALID,23.2754,VALID,250,VALID,0.489062,
2009-03-18, 02:14:05,VALID,1002.73,VALID,0,VALID,95.2618,VALID,0,VALID,23.2541,VALID,265,VALID,0.553906,
2009-03-18, 02:15:05,VALID,1002.72,VALID,0,VALID,95.2313,VALID,0,VALID,23.2754,VALID,336,VALID,1.52969,
2009-03-18, 02:16:05,VALID,1002.72,VALID,0,VALID,95.2542,VALID,0,VALID,23.2559,VALID,324,VALID,0.96875,
2009-03-18, 02:17:05,VALID,1002.74,VALID,0,VALID,95.2466,VALID,0,VALID,23.2948,VALID,300,VALID,1.23438,
2009-03-18, 02:18:05,VALID,1002.71,VALID,0,VALID,95.2237,VALID,0,VALID,23.2931,VALID,280,VALID,1.0668,
2009-03-18, 02:19:05,VALID,1002.71,VALID,0.5,VALID,95.1855,VALID,0,VALID,23.3125,VALID,294,VALID,2.01445,
2009-03-18, 02:20:05,VALID,1002.71,VALID,0,VALID,95.1627,VALID,0,VALID,23.3337,VALID,306,VALID,2.18281,
2009-03-18, 02:21:05,VALID,1002.72,VALID,0,VALID,95.1627,VALID,0,VALID,23.3727,VALID,162,VALID,0.251172,
2009-03-18, 02:22:05,VALID,1002.71,VALID,0,VALID,95.1321,VALID,0,VALID,23.332,VALID,192,VALID,0.3625,
2009-03-18, 02:23:05,VALID,1002.74,VALID,0,VALID,95.1016,VALID,0,VALID,23.332,VALID,359,VALID,0.925781,
2009-03-18, 02:24:05,VALID,1002.74,VALID,0,VALID,95.1169,VALID,0,VALID,23.3532,VALID,352,VALID,1.18164,
2009-03-18, 02:25:05,VALID,1002.72,VALID,0,VALID,95.1093,VALID,0,VALID,23.3337,VALID,293,VALID,1.53437,
2009-03-18, 02:26:05,VALID,1002.77,VALID,0,VALID,95.1169,VALID,0,VALID,23.3125,VALID,337,VALID,1.18398,
2009-03-18, 02:27:04,VALID,1002.74,VALID,0,VALID,95.0864,VALID,0,VALID,23.3337,VALID,355,VALID,0.773438,
2009-03-18, 02:28:04,VALID,1002.76,VALID,0,VALID,95.0635,VALID,0,VALID,23.3143,VALID,315,VALID,1.71758,
2009-03-18, 02:29:04,VALID,1002.75,VALID,0,VALID,95.0787,VALID,0,VALID,23.3337,VALID,346,VALID,0.934766,
2009-03-18, 02:30:04,VALID,1002.75,VALID,0,VALID,95.094,VALID,0,VALID,23.3143,VALID,357,VALID,0.541797,
2009-03-18, 02:31:04,VALID,1002.74,VALID,0,VALID,95.0635,VALID,0,VALID,23.2948,VALID,348,VALID,1.4457,
2009-03-18, 02:32:04,VALID,1002.77,VALID,0,VALID,95.0711,VALID,0,VALID,23.2736,VALID,351,VALID,0.515234,
2009-03-18, 02:33:04,VALID,1002.76,VALID,0,VALID,95.0711,VALID,0,VALID,23.2754,VALID,360,VALID,0.970703,
2009-03-18, 02:34:04,VALID,1002.74,VALID,0,VALID,95.0864,VALID,0,VALID,23.2347,VALID,347,VALID,0.475,
2009-03-18, 02:35:04,VALID,1002.73,VALID,0,VALID,95.1093,VALID,0,VALID,23.2559,VALID,5,VALID,1.19062,
2009-03-18, 02:36:04,VALID,1002.72,VALID,0,VALID,95.0864,VALID,0,VALID,23.2559,VALID,358,VALID,1.27305,
2009-03-18, 02:37:04,VALID,1002.73,VALID,0,VALID,95.0711,VALID,0,VALID,23.2347,VALID,353,VALID,1.12539,
2009-03-18, 02:38:04,VALID,1002.72,VALID,0,VALID,95.0864,VALID,0,VALID,23.2559,VALID,348,VALID,0.486719,
2009-03-18, 02:39:04,VALID,1002.69,VALID,0,VALID,95.0787,VALID,0,VALID,23.2559,VALID,1,VALID,1.07734,
2009-03-18, 02:40:04,VALID,1002.71,VALID,0,VALID,95.0787,VALID,0,VALID,23.2364,VALID,334,VALID,0.664844,
2009-03-18, 02:41:04,VALID,1002.66,VALID,0,VALID,95.1016,VALID,0.100563,VALID,23.2347,VALID,355,VALID,0.595703,
2009-03-18, 02:42:04,VALID,1002.67,VALID,0,VALID,95.1093,VALID,0.100563,VALID,23.2152,VALID,336,VALID,0.781641,
2009-03-18, 02:43:04,VALID,1002.67,VALID,0,VALID,95.1321,VALID,0.100563,VALID,23.2559,VALID,346,VALID,0.576953,
2009-03-18, 02:44:04,VALID,1002.67,VALID,0,VALID,95.1321,VALID,0.100563,VALID,23.2134,VALID,330,VALID,0.767578,
2009-03-18, 02:45:04,VALID,1002.66,VALID,0,VALID,95.155,VALID,0.100563,VALID,23.2559,VALID,320,VALID,0.403125,
2009-03-18, 02:46:04,VALID,1002.63,VALID,0,VALID,95.1474,VALID,0,VALID,23.2347,VALID,9,VALID,0.651563,
2009-03-18, 02:47:04,VALID,1002.61,VALID,0,VALID,95.1169,VALID,0,VALID,23.2541,VALID,347,VALID,1.06523,
2009-03-18, 02:48:04,VALID,1002.6,VALID,0,VALID,95.1093,VALID,0.100563,VALID,23.2347,VALID,254,VALID,0.375781,
2009-03-18, 02:49:04,VALID,1002.59,VALID,0,VALID,95.1245,VALID,0.100563,VALID,23.2559,VALID,329,VALID,0.326562,
2009-03-18, 02:50:04,VALID,1002.58,VALID,0,VALID,95.1093,VALID,0.100563,VALID,23.2347,VALID,348,VALID,0.81875,
2009-03-18, 02:51:04,VALID,1002.59,VALID,0,VALID,95.1321,VALID,0.100563,VALID,23.2152,VALID,342,VALID,0.750391,
2009-03-18, 02:52:04,VALID,1002.55,VALID,0,VALID,95.0558,VALID,0.100563,VALID,23.1957,VALID,336,VALID,1.79375,
2009-03-18, 02:53:04,VALID,1002.52,VALID,0,VALID,95.0253,VALID,0,VALID,23.1745,VALID,4,VALID,1.73906,
2009-03-18, 02:54:04,VALID,1002.49,VALID,0,VALID,94.9948,VALID,0,VALID,23.1763,VALID,359,VALID,1.5832,
2009-03-18, 02:55:04,VALID,1002.5,VALID,0,VALID,94.9033,VALID,0.100563,VALID,23.1763,VALID,341,VALID,0.9375,
2009-03-18, 02:56:04,VALID,1002.49,VALID,0,VALID,94.8728,VALID,0,VALID,23.1586,VALID,358,VALID,1.29805,
2009-03-18, 02:57:04,VALID,1002.5,VALID,0,VALID,94.8575,VALID,0,VALID,23.1374,VALID,349,VALID,0.878125,
2009-03-18, 02:58:04,VALID,1002.52,VALID,0,VALID,94.8728,VALID,0,VALID,23.1586,VALID,304,VALID,0.948047,
2009-03-18, 02:59:04,VALID,1002.55,VALID,0,VALID,94.8346,VALID,0,VALID,23.1586,VALID,308,VALID,0.864062,
2009-03-18, 03:00:04,VALID,1002.53,VALID,0,VALID,94.8499,VALID,0,VALID,23.1391,VALID,287,VALID,1.25,
2009-03-18, 03:01:04,VALID,1002.51,VALID,0,VALID,94.827,VALID,0,VALID,23.1391,VALID,355,VALID,0.508984,
2009-03-18, 03:02:04,VALID,1002.5,VALID,0,VALID,94.8194,VALID,0,VALID,23.1197,VALID,353,VALID,0.800781,
2009-03-18, 03:03:04,VALID,1002.49,VALID,0,VALID,94.7583,VALID,0,VALID,23.0984,VALID,338,VALID,1.13594,
2009-03-18, 03:04:04,VALID,1002.5,VALID,0,VALID,94.6897,VALID,0,VALID,23.1002,VALID,359,VALID,1.05625,
2009-03-18, 03:05:04,VALID,1002.5,VALID,0,VALID,94.6515,VALID,0,VALID,23.1002,VALID,344,VALID,1.36797,
2009-03-18, 03:06:04,VALID,1002.52,VALID,0,VALID,94.6973,VALID,0,VALID,23.1179,VALID,359,VALID,0.601953,
2009-03-18, 03:07:04,VALID,1002.51,VALID,0,VALID,94.6363,VALID,0,VALID,23.1197,VALID,1,VALID,1.57578,
2009-03-18, 03:08:04,VALID,1002.5,VALID,0,VALID,94.6134,VALID,0,VALID,23.1002,VALID,349,VALID,1.28594,
2009-03-18, 03:09:04,VALID,1002.49,VALID,0,VALID,94.5523,VALID,0,VALID,23.1002,VALID,354,VALID,2.20664,
2009-03-18, 03:10:04,VALID,1002.47,VALID,0,VALID,94.5066,VALID,0,VALID,23.1197,VALID,357,VALID,1.82773,
2009-03-18, 03:11:04,VALID,1002.49,VALID,0,VALID,94.4455,VALID,0,VALID,23.0984,VALID,341,VALID,2.2957,
2009-03-18, 03:12:04,VALID,1002.47,VALID,0,VALID,94.4303,VALID,0,VALID,23.1002,VALID,349,VALID,1.5375,
2009-03-18, 03:13:04,VALID,1002.45,VALID,0,VALID,94.3769,VALID,0,VALID,23.1002,VALID,355,VALID,2.26641,
2009-03-18, 03:14:04,VALID,1002.44,VALID,0.5,VALID,94.3235,VALID,0,VALID,23.079,VALID,354,VALID,1.93047,
2009-03-18, 03:15:04,VALID,1002.45,VALID,0,VALID,94.3082,VALID,0,VALID,23.0595,VALID,353,VALID,1.2332,
2009-03-18, 03:16:04,VALID,1002.39,VALID,0,VALID,94.2777,VALID,0,VALID,23.0595,VALID,349,VALID,1.3793,
2009-03-18, 03:17:04,VALID,1002.41,VALID,0,VALID,94.2624,VALID,0,VALID,23.0807,VALID,1,VALID,0.592969,
2009-03-18, 03:18:04,VALID,1002.45,VALID,0,VALID,94.2701,VALID,0,VALID,23.0807,VALID,293,VALID,0.551172,
2009-03-18, 03:19:04,VALID,1002.42,VALID,0,VALID,94.3158,VALID,0,VALID,23.0401,VALID,274,VALID,0.437109,
2009-03-18, 03:20:04,VALID,1002.48,VALID,0,VALID,94.3082,VALID,0,VALID,23.0418,VALID,321,VALID,1.00195,
2009-03-18, 03:21:04,VALID,1002.46,VALID,0,VALID,94.3387,VALID,0,VALID,23.0206,VALID,291,VALID,0.817578,
2009-03-18, 03:22:04,VALID,1002.52,VALID,0,VALID,94.354,VALID,0,VALID,23.0224,VALID,292,VALID,1.02734,
2009-03-18, 03:23:04,VALID,1002.52,VALID,0,VALID,94.3769,VALID,0,VALID,23.0224,VALID,269,VALID,0.673047,
2009-03-18, 03:24:04,VALID,1002.55,VALID,0,VALID,94.4074,VALID,0,VALID,23.0012,VALID,268,VALID,1.66523,
2009-03-18, 03:25:04,VALID,1002.56,VALID,0,VALID,94.3006,VALID,0,VALID,22.9817,VALID,292,VALID,1.94727,
2009-03-18, 03:26:04,VALID,1002.56,VALID,0,VALID,94.2701,VALID,0,VALID,23.0224,VALID,300,VALID,1.09063,
2009-03-18, 03:27:04,VALID,1002.58,VALID,0,VALID,94.2624,VALID,0,VALID,23.0418,VALID,295,VALID,0.898828,
2009-03-18, 03:28:04,VALID,1002.54,VALID,0,VALID,94.2167,VALID,0,VALID,23.0418,VALID,316,VALID,1.63008,
2009-03-18, 03:29:04,VALID,1002.56,VALID,0,VALID,94.1251,VALID,0,VALID,23.0418,VALID,4,VALID,1.61289,
2009-03-18, 03:30:04,VALID,1002.51,VALID,0,VALID,94.0488,VALID,0,VALID,23.0807,VALID,2,VALID,1.23477,
2009-03-18, 03:31:04,VALID,1002.5,VALID,0,VALID,93.9573,VALID,0,VALID,23.0401,VALID,1,VALID,1.02461,
2009-03-18, 03:32:04,VALID,1002.51,VALID,0,VALID,93.8963,VALID,0,VALID,23.0206,VALID,350,VALID,1.35352,
2009-03-18, 03:33:04,VALID,1002.48,VALID,0,VALID,93.9344,VALID,0,VALID,23.0224,VALID,359,VALID,1.08125,
2009-03-18, 03:34:04,VALID,1002.47,VALID,0,VALID,93.9268,VALID,0,VALID,23.0012,VALID,349,VALID,1.12227,
2009-03-18, 03:35:04,VALID,1002.47,VALID,0,VALID,93.9878,VALID,0,VALID,22.9817,VALID,348,VALID,0.6875,
2009-03-18, 03:36:04,VALID,1002.5,VALID,0,VALID,94.0336,VALID,0,VALID,22.9622,VALID,235,VALID,0.646094,
2009-03-18, 03:37:04,VALID,1002.49,VALID,0,VALID,94.1022,VALID,0,VALID,22.964,VALID,298,VALID,0.601563,
2009-03-18, 03:38:04,VALID,1002.5,VALID,0,VALID,94.1404,VALID,0,VALID,22.964,VALID,301,VALID,0.870313,
2009-03-18, 03:39:04,VALID,1002.47,VALID,0,VALID,94.1938,VALID,0,VALID,22.9445,VALID,325,VALID,0.546094,
2009-03-18, 03:40:04,VALID,1002.47,VALID,0,VALID,94.2396,VALID,0,VALID,22.9233,VALID,344,VALID,0.932031,
2009-03-18, 03:41:04,VALID,1002.48,VALID,0,VALID,94.1938,VALID,0,VALID,22.9445,VALID,350,VALID,1.7957,
2009-03-18, 03:42:04,VALID,1002.46,VALID,0,VALID,94.2167,VALID,0,VALID,22.964,VALID,354,VALID,1.3168,
2009-03-18, 03:43:04,VALID,1002.44,VALID,0,VALID,94.1633,VALID,0,VALID,22.964,VALID,347,VALID,1.65078,
2009-03-18, 03:44:04,VALID,1002.44,VALID,0,VALID,94.1862,VALID,0,VALID,22.9834,VALID,336,VALID,0.693359,